Regional Weather Roundup
Issued by NWS Upton, NY

Current Version | Previous Version | Text Only | Print | Product List | Glossary On
Versions: 1 2 3 4 5 6 7 8 9 10 11 12 13 14 15 16 17 18 19 20 21 22 23 24 25 26 27 28 29 30 31 32 33 34 35 36 37 38 39 40 41 42 43 44 45 46 47 48 49 50
626 ASUS41 KOKX 050308 RWROKX REGIONAL WEATHER ROUNDUP NATIONAL WEATHER SERVICE NEW YORK NY 1000 PM EST SUN DEC 04 2016 NOTE: "FAIR" INDICATES FEW OR NO CLOUDS BELOW 12,000 FEET WITH NO SIGNIFICANT WEATHER AND/OR OBSTRUCTIONS TO VISIBILITY. NYZ071-072-176-178-NJZ106-104-050400- NEW YORK CITY METRO AREA CITY SKY/WX TMP DP RH WIND PRES REMARKS Central Park CLOUDY 41 24 51 E8 30.18F Wall St Helipt CLOUDY 43 30 61 NE10 30.17F Bronx Bot Gard NOT AVBL LaGuardia APRT CLOUDY 42 24 49 E9 30.16F Kennedy INTL CLOUDY 40 23 50 E5 30.18F Breezy Point N/A 39 N/A N/A NE7 N/A WCI 34 Newark/Liberty CLOUDY 42 23 46 E6 30.15F Teterboro CLOUDY 40 22 48 NE5 30.15F $$ NYZ177-179-078>081-050400- LONG ISLAND NEW YORK CITY SKY/WX TMP DP RH WIND PRES REMARKS Jones Beach N/A 39 N/A N/A E7 N/A WCI 34 Matinecock PT NOT AVBL Farmingdale CLOUDY 37 24 59 CALM 30.17F MacArthur/ISP CLOUDY 36 24 62 CALM 30.15F Shirley MOCLDY 31 24 75 CALM 30.17F Westhampton CLOUDY 28 22 78 CALM 30.18F Southampton NOT AVBL Bridgehampton NOT AVBL East Hampton N/A 27 22 80 CALM 30.17F Montauk N/A 34 24 67 CALM 30.19F $$ NYZ052-065-067-050400- HUDSON VALLEY CITY SKY/WX TMP DP RH WIND PRES REMARKS White Plains CLOUDY 34 20 56 NE3 30.14F Newburgh CLOUDY 30 25 80 NE8 30.17F WCI 23 Montgomery MOCLDY 32 22 66 NE7 30.14F WCI 26 Poughkeepsie MOCLDY 30 22 72 CALM 30.17F Albany CLOUDY 25 19 78 CALM 30.16F $$ NJZ001-105-106-008-010-013-015-019>022-104-050400- NEW JERSEY CITY SKY/WX TMP DP RH WIND PRES REMARKS Newark/Liberty CLOUDY 42 23 46 E6 30.15F Teterboro CLOUDY 40 22 48 NE5 30.15F Caldwell CLOUDY 38 24 57 NE7 30.15F WCI 33 Somerville CLOUDY 36 28 73 CALM 30.12F Linden N/A N/A N/A N/A CALM 30.15F Sussex MOCLDY 33 23 66 NE5 30.14F WCI 29 Andover N/A 34 24 67 VRB3 30.12F Trenton MOCLDY 40 27 59 CALM 30.13F Millville CLOUDY 38 33 82 CALM 30.17S Atlantic City CLOUDY 38 31 76 CALM 30.15F Wrightstown NOT AVBL Toms River MOCLDY 35 31 85 CALM 30.16F Belmar CLOUDY N/A N/A N/A SE3 30.15F $$ PAZ047>061-062-071-050400- EASTERN PENNSYLVANIA CITY SKY/WX TMP DP RH WIND PRES REMARKS Philadelphia CLOUDY 43 31 62 S3 30.15F Allentown MOCLDY 41 26 55 E5 30.11F Scranton CLOUDY 37 24 59 SE6 30.05F WCI 32 $$ CTZ002-004>006-009-010-012-RIZ004-006-007-MAZ004-011-015-050400- SOUTHERN NEW ENGLAND IN CT CITY SKY/WX TMP DP RH WIND PRES REMARKS Bradley INTL CLOUDY 28 20 71 N5 30.17F WCI 23 Hartford CLOUDY 30 23 75 CALM 30.19F Danbury MOCLDY 28 23 81 CALM 30.17F Wtrbury/Oxford MOCLDY 30 18 59 CALM 30.16F Bridgeport CLOUDY 37 21 52 NE3 30.17F Meriden MOCLDY 30 24 78 CALM 30.17F New Haven MOCLDY 33 22 63 N7 30.16F WCI 27 Chester N/A 32 21 64 CALM 30.16F Groton CLOUDY 33 24 69 N3 30.17F Wilimantic PTCLDY 28 23 81 CALM 30.18F IN RI CITY SKY/WX TMP DP RH WIND PRES REMARKS Providence MOCLDY 28 22 78 CALM 30.20S Block Island CLOUDY 37 23 56 N5 30.18F WCI 33 Westerly CLOUDY 29 23 78 N3 30.19F IN MA CITY SKY/WX TMP DP RH WIND PRES REMARKS Boston PTCLDY 33 21 61 NW5 30.20F WCI 29 Worcester PTCLDY 28 18 66 N3 30.14S Westfield CLOUDY 26 22 84 CALM 30.17F Provincetown CLEAR 38 26 62 N7 30.18F WCI 33 Nantucket CLEAR 28 21 75 W3 30.18F $$ ANZ330-335-338-340-345-350-353-355-050400- COASTAL MARINE OBSERVATIONS STATION/POSITION TIME SKY/WX TEMP WIND PRES VSBY WAVE AIR SEA DIR/SP/G HT/PER (UTC) (F) (DEG/KT/KT) (MB) (MI) (FT/S) NY HARB ENTRANCE 0150 44 53 100/ 8/ 12 1021.6 1/ 8 20 S FIRE ISLAND 0150 43 54 40/ 8/ 10 1022.1 1/ 8 GREAT SOUTH BAY 0230 40 44 N/A 23 SSW MONTAUK P 0250 42 55 90/ 6/ 8 1022.3 1/ 8 15 E BARNEGAT LI 0230 54 N/A 2/ 9 HUDSON CANYON 0150 44 58 1022.2 2/ 4 KINGS POINT 0248 39 48 1021.4 EXECUTION ROCKS 0245 41 50/ 8/ 12 N/A CENTRAL LI SOUND 0200 40 51 30/ 10/ 12 N/A 1/ 2 EASTERN LI SOUND NOT AVBL ROBBINS REEF 0248 41 90/ 11/ 14 1021.4 $$ >>>>>>>>>>>>>>>>>>>>>>>>>>>> KEY <<<<<<<<<<<<<<<<<<<<<<<<<<< > < > SKY/WX - Sky Condition/Present Weather < > TMP - Temperature in Fahrenheit < > DP - Dew Point in Fahrenheit < > RH - Relative Humidity in Percent < > WIND - Direction (from) and Speed in MPH < > PRES - Mean Sea Level Pressure (inches of Hg) < > WCI - Wind Chill Index < > VSB - VISIBILITY IN MILES < > HX - HEAT INDEX < > TC - TEMPERATURE IN CELSIUS < > VRB - VARIABLE WIND DIRECTION < > < >>>>>>>>>>>>>>>>>>>>>>>>>>>> KEY <<<<<<<<<<<<<<<<<<<<<<<<<<<

USA.gov is the U.S. government's official web portal to all federal, state and local government web resources and services.